Hourly Data Report for October 11, 2016

All times are specified in Local Standard Time (LST). Add 1 hour to adjust for Daylight Saving Time where and when it is observed.

POND INLET A
NUNAVUT

72°41'22.000" N
77°58'08.000" W
61.60 m
2403206
71095
YIO

Download Data

Hourly Data (October 2016)
Hourly Data Report for October 11, 2016
Temp Definition
°C
Dew Point Temp Definition
°C
Rel Hum Definition
%
Wind Dir Definition
10's deg

Wind Spd Definition
km/h
Visibility Definition
km
Stn Press Definition
kPa
Hmdx Definition


Wind Chill Definition


Weather Definition


TIME
00:00 Legend Double Dagger -8.5 -10.4 86 14 15 16.1 99.96   -15 Snow
01:00 Legend Double Dagger -8.2 -9.4 91 16 17 3.2 99.98   -15 Snow
02:00 Legend Double Dagger -7.9 -9.1 91 17 18 4.0 100.02   -15 Snow
03:00 Legend Double Dagger -8.0 -9.2 91 17 17 4.8 100.05   -15 Snow
04:00 Legend Double Dagger -8.1 -9.5 90 19 18 2.0 100.08   -15 Snow
05:00 Legend Double Dagger -8.2 -9.9 88 19 22 3.6 100.10   -16 Snow
06:00 Legend Double Dagger -8.6 -10.7 85 19 18 12.9 100.11   -16 Snow
07:00 Legend Double Dagger -8.8 -10.3 89 19 22 2.8 100.13   -17 Snow
08:00 Legend Double Dagger -8.8 -11.0 84 19 21 4.0 100.13   -17 Snow
09:00 Legend Double Dagger -8.8 -10.4 88 19 17 1.2 100.12   -16 Snow
10:00 Legend Double Dagger -8.8 -10.0 91 20 17 1.0 100.10   -16 Snow
11:00 Legend Double Dagger -8.8 -9.9 92 19 15 1.2 100.09   -15 Snow
12:00 Legend Double Dagger -8.7 -9.9 91 20 15 2.4 100.09   -15 Snow
13:00 Legend Double Dagger -8.7 -10.1 90 20 15 2.0 100.08   -15 Snow
14:00 Legend Double Dagger -8.7 -9.9 91 20 15 2.8 100.07   -15 Snow
15:00 Legend Double Dagger -8.8 -10.0 91 19 13 3.6 100.06   -15 Snow
16:00 Legend Double Dagger -8.7 -9.8 92 20 11 2.0 100.06   -14 Snow
17:00 Legend Double Dagger -8.9 -10.1 91 20 15 2.0 100.06   -15 Snow
18:00 Legend Double Dagger -9.8 -11.3 89 18 18 8.1 100.06   -17 Snow
19:00 Legend Double Dagger -9.6 -11.2 88 18 21 2.0 100.05   -18 Snow
20:00 Legend Double Dagger -9.3 -10.7 90 18 18 2.0 100.04   -17 Snow
21:00 Legend Double Dagger -9.1 -10.5 90 17 21 4.8 100.02   -17 Snow
22:00 Legend Double Dagger -9.1 -10.3 91 18 21 2.8 100.00   -17 Snow
23:00 Legend Double Dagger -9.9 -11.7 87 15 18 6.4 100.02   -17 Snow

Notes on Data Quality.

Legend

  • E = Estimated
  • M = Missing
  • NA = Not Available
  • ‡ = Partner data that is not subject to review by the National Climate Archives
Date modified: